Location: Acheville
(50.3840°N, 2.8827°E)
Time: 15:41:59
(UTC+00:00)

Cosmos 1908 - Pass Details

Date: 24 October 2021
Orbit: 509 x 528 km, 82.5° (Epoch: 27 November)

Event Time Altitude Azimuth Distance (km) Brightness Sun altitude
Rises 17:24:23 0° 191° (SSW) 2,648 7.1 -7.9°
Reaches altitude 10° 17:26:31 10° 193° (SSW) 1,761 6.2 -8.3°
Maximum altitude 17:30:23 80° 279° (W) 538 3.4 -8.9°
Drops below altitude 10° 17:34:16 10° 8° (N) 1,765 5.7 -9.5°
Sets 17:36:25 0° 10° (N) 2,654 6.6 -9.8°
